• In Czech Republic
  • List of Countries
  • For 7 days
  • Water Temperature
  • Satellite Maps
  • Weather Map
  • Weather Widgets
  • user-avatar
    Login

    Hourly Weather Farnham

    Today, 20 November, Monday

    Time Temperature Precipitation Wind Pressure Humidity
    00:00 +5°C° 0 mm 3 mps 757 mmHg 88%
    01:00 +6°C° 0 mm 4 mps 757 mmHg 90%
    02:00 +7°C° 0 mm 4 mps 756 mmHg 92%
    03:00 +7°C° 0 mm 4 mps 756 mmHg 93%
    04:00 +8°C° 0 mm 5 mps 755 mmHg 92%
    05:00 +8°C° 0 mm 5 mps 755 mmHg 92%
    06:00 +8°C° 0 mm 6 mps 754 mmHg 91%
    07:00 +8°C° 0 mm 6 mps 754 mmHg 90%
    08:00 +9°C° 0 mm 6 mps 754 mmHg 89%
    09:00 +9°C° 0 mm 7 mps 754 mmHg 87%
    10:00 +10°C° 0 mm 7 mps 754 mmHg 87%
    11:00 +10°C° 0 mm 7 mps 753 mmHg 87%
    12:00 +11°C° 0 mm 7 mps 753 mmHg 86%
    13:00 +11°C° 0.1 mm 7 mps 753 mmHg 87%
    14:00 +11°C° 0.1 mm 7 mps 753 mmHg 88%
    15:00 +11°C° 0.1 mm 7 mps 752 mmHg 89%
    16:00 +11°C° 0.1 mm 7 mps 752 mmHg 89%
    17:00 +11°C° 0.1 mm 7 mps 752 mmHg 90%
    18:00 +11°C° 0.1 mm 7 mps 752 mmHg 91%
    19:00 +11°C° 0.2 mm 7 mps 752 mmHg 91%
    20:00 +11°C° 0.2 mm 6 mps 752 mmHg 91%
    21:00 +11°C° 0.2 mm 6 mps 752 mmHg 92%
    22:00 +11°C° 0.1 mm 6 mps 752 mmHg 92%
    23:00 +11°C° 0.1 mm 6 mps 752 mmHg 92%

    Tomorrow, 21 November, Tuesday

    Time Temperature Precipitation Wind Pressure Humidity
    00:00 +10°C° 0.1 mm 7 mps 752 mmHg 92%
    01:00 +10°C° 0 mm 6 mps 751 mmHg 93%
    02:00 +10°C° 0 mm 6 mps 751 mmHg 93%
    03:00 +10°C° 0 mm 5 mps 751 mmHg 93%
    04:00 +10°C° 0 mm 5 mps 751 mmHg 94%
    05:00 +9°C° 0 mm 5 mps 751 mmHg 94%
    06:00 +10°C° 0 mm 4 mps 750 mmHg 95%
    07:00 +9°C° 0 mm 5 mps 750 mmHg 94%
    08:00 +10°C° 0 mm 5 mps 750 mmHg 93%
    09:00 +10°C° 0 mm 5 mps 750 mmHg 93%
    10:00 +10°C° 0 mm 6 mps 750 mmHg 90%
    11:00 +11°C° 0 mm 6 mps 750 mmHg 88%
    12:00 +11°C° 0 mm 7 mps 749 mmHg 85%
    13:00 +11°C° 0 mm 7 mps 749 mmHg 85%
    14:00 +12°C° 0 mm 7 mps 748 mmHg 85%
    15:00 +12°C° 0 mm 7 mps 748 mmHg 85%
    16:00 +11°C° 0 mm 7 mps 748 mmHg 85%
    17:00 +11°C° 0 mm 7 mps 747 mmHg 84%
    18:00 +11°C° 0 mm 7 mps 747 mmHg 84%
    19:00 +11°C° 0 mm 7 mps 747 mmHg 84%
    20:00 +11°C° 0 mm 8 mps 746 mmHg 84%
    21:00 +11°C° 0 mm 8 mps 746 mmHg 83%
    22:00 +11°C° 0 mm 8 mps 746 mmHg 83%
    23:00 +11°C° 0 mm 8 mps 745 mmHg 83%

    Day after tomorrow, 22 November, Wednesday

    Time Temperature Precipitation Wind Pressure Humidity
    00:00 +11°C° 0 mm 9 mps 745 mmHg 83%
    01:00 +11°C° 0 mm 8 mps 745 mmHg 83%
    02:00 +11°C° 0 mm 8 mps 744 mmHg 83%
    03:00 +11°C° 0 mm 8 mps 744 mmHg 84%
    04:00 +12°C° 0.1 mm 8 mps 744 mmHg 84%
    05:00 +12°C° 0.1 mm 8 mps 744 mmHg 85%
    06:00 +12°C° 0.1 mm 8 mps 743 mmHg 86%
    07:00 +12°C° 0 mm 8 mps 743 mmHg 82%
    08:00 +12°C° 0 mm 8 mps 743 mmHg 79%
    09:00 +12°C° 0 mm 8 mps 743 mmHg 76%
    10:00 +12°C° 0 mm 9 mps 742 mmHg 72%
    11:00 +13°C° 0 mm 10 mps 742 mmHg 68%
    12:00 +13°C° 0 mm 10 mps 741 mmHg 64%
    13:00 +13°C° 0 mm 10 mps 740 mmHg 63%
    14:00 +13°C° 0 mm 10 mps 739 mmHg 62%
    15:00 +13°C° 0 mm 10 mps 738 mmHg 60%
    16:00 +13°C° 0.2 mm 10 mps 738 mmHg 64%
    17:00 +13°C° 0.2 mm 10 mps 738 mmHg 67%
    18:00 +13°C° 0.2 mm 11 mps 737 mmHg 70%
    19:00 +13°C° 0.7 mm 11 mps 737 mmHg 74%
    20:00 +13°C° 0.7 mm 12 mps 736 mmHg 78%
    21:00 +13°C° 0.7 mm 12 mps 736 mmHg 82%
    22:00 +13°C° 0.8 mm 12 mps 736 mmHg 82%
    23:00 +12°C° 0.8 mm 11 mps 736 mmHg 83%

    23 November, Thursday

    Time Temperature Precipitation Wind Pressure Humidity
    00:00 +12°C° 0.8 mm 11 mps 735 mmHg 83%
    01:00 +12°C° 0.2 mm 10 mps 736 mmHg 84%
    02:00 +12°C° 0.2 mm 10 mps 737 mmHg 85%
    03:00 +12°C° 0.2 mm 9 mps 737 mmHg 85%
    04:00 +12°C° 0 mm 9 mps 738 mmHg 85%
    05:00 +12°C° 0 mm 8 mps 739 mmHg 85%
    06:00 +11°C° 0 mm 8 mps 740 mmHg 85%
    07:00 +12°C° 0.1 mm 8 mps 741 mmHg 86%
    08:00 +12°C° 0.1 mm 8 mps 742 mmHg 86%
    09:00 +12°C° 0.1 mm 8 mps 743 mmHg 86%
    10:00 +12°C° 0.1 mm 8 mps 743 mmHg 85%
    11:00 +13°C° 0.1 mm 9 mps 744 mmHg 83%
    12:00 +13°C° 0.1 mm 9 mps 744 mmHg 81%
    13:00 +13°C° 0 mm 9 mps 744 mmHg 82%
    14:00 +13°C° 0 mm 9 mps 744 mmHg 83%
    15:00 +13°C° 0 mm 9 mps 744 mmHg 84%
    16:00 +13°C° 0.6 mm 9 mps 744 mmHg 84%
    17:00 +13°C° 0.6 mm 10 mps 744 mmHg 85%
    18:00 +13°C° 0.6 mm 10 mps 744 mmHg 85%
    19:00 +13°C° 0.6 mm 10 mps 744 mmHg 85%
    20:00 +13°C° 0.6 mm 10 mps 744 mmHg 85%
    21:00 +13°C° 0.6 mm 10 mps 743 mmHg 85%
    22:00 +13°C° 0.6 mm 11 mps 743 mmHg 85%
    23:00 +13°C° 0.6 mm 11 mps 742 mmHg 84%

    24 November, Friday

    Time Temperature Precipitation Wind Pressure Humidity
    00:00 +13°C° 0.6 mm 12 mps 742 mmHg 84%
    01:00 +13°C° 1.7 mm 10 mps 742 mmHg 85%
    02:00 +13°C° 1.7 mm 9 mps 742 mmHg 87%
    03:00 +12°C° 1.7 mm 8 mps 741 mmHg 88%
    04:00 +12°C° 0.6 mm 7 mps 742 mmHg 88%
    05:00 +11°C° 0.6 mm 7 mps 742 mmHg 88%
    06:00 +11°C° 0.6 mm 6 mps 742 mmHg 88%
    07:00 +11°C° 0.2 mm 6 mps 743 mmHg 88%
    08:00 +12°C° 0.2 mm 5 mps 743 mmHg 88%
    09:00 +10°C° 0.2 mm 5 mps 743 mmHg 89%
    10:00 +11°C° 0.8 mm 4 mps 744 mmHg 88%
    11:00 +11°C° 0.8 mm 4 mps 744 mmHg 88%
    12:00 +11°C° 0.8 mm 4 mps 744 mmHg 88%
    13:00 +11°C° 1.1 mm 3 mps 744 mmHg 88%
    14:00 +10°C° 1.1 mm 3 mps 744 mmHg 88%
    15:00 +10°C° 1.1 mm 2 mps 744 mmHg 89%
    16:00 +10°C° 0.2 mm 2 mps 744 mmHg 88%
    17:00 +9°C° 0.2 mm 2 mps 744 mmHg 88%
    18:00 +10°C° 0.2 mm 1 mps 744 mmHg 87%
    19:00 +10°C° 0.4 mm 1 mps 744 mmHg 87%
    20:00 +9°C° 0.4 mm 1 mps 745 mmHg 88%
    21:00 +9°C° 0.4 mm 1 mps 745 mmHg 88%
    22:00 +9°C° 0.6 mm 1 mps 745 mmHg 88%
    23:00 +8°C° 0.6 mm 2 mps 745 mmHg 88%

    25 November, Saturday

    Time Temperature Precipitation Wind Pressure Humidity
    00:00 +8°C° 0.6 mm 2 mps 745 mmHg 89%
    01:00 +7°C° 1.1 mm 3 mps 744 mmHg 89%
    02:00 +7°C° 1.1 mm 3 mps 744 mmHg 90%
    03:00 +6°C° 1.1 mm 4 mps 743 mmHg 91%
    04:00 +6°C° 2 mm 4 mps 743 mmHg 92%
    05:00 +6°C° 2 mm 5 mps 743 mmHg 92%
    06:00 +5°C° 2 mm 5 mps 743 mmHg 93%
    07:00 +5°C° 0.8 mm 5 mps 743 mmHg 91%
    08:00 +4°C° 0.8 mm 6 mps 744 mmHg 90%
    09:00 +4°C° 0.8 mm 6 mps 744 mmHg 89%
    10:00 +4°C° 0.9 mm 6 mps 745 mmHg 87%
    11:00 +3°C° 0.9 mm 7 mps 746 mmHg 85%
    12:00 +3°C° 0.9 mm 7 mps 747 mmHg 83%
    13:00 +3°C° 0.5 mm 6 mps 748 mmHg 81%
    14:00 +3°C° 0.5 mm 5 mps 749 mmHg 79%
    15:00 +4°C° 0.5 mm 4 mps 750 mmHg 78%
    16:00 +4°C° 0 mm 4 mps 751 mmHg 79%
    17:00 +3°C° 0 mm 3 mps 752 mmHg 80%
    18:00 +4°C° 0 mm 2 mps 753 mmHg 81%
    19:00 +4°C° 0 mm 2 mps 754 mmHg 80%
    20:00 +4°C° 0 mm 2 mps 754 mmHg 78%
    21:00 +5°C° 0 mm 1 mps 755 mmHg 77%
    22:00 +5°C° 0 mm 1 mps 755 mmHg 76%
    23:00 +4°C° 0 mm 2 mps 755 mmHg 75%
    Show more